Location: Capannuccia
(43.7000°N, 11.3000°E)
Time: 09:56:08
(UTC+00:00)

STARLINK-2657 - Pass Details

Date: 30 July 2021
Orbit: 546 x 548 km, 53.1° (Epoch: 23 September)

Event Time Altitude Azimuth Distance (km) Brightness Sun altitude
Rises 18:58:33 0° 305° (NW) 2,726 10.0 -3.8°
Reaches altitude 10° 19:00:48 10° 308° (NW) 1,829 8.2 -4.1°
Maximum altitude 19:04:57 69° 32° (NNE) 592 3.8 -4.8°
Drops below altitude 10° 19:09:04 10° 116° (ESE) 1,819 5.6 -5.4°
Enters shadow 19:09:44 - 117° (ESE) 2,080 5.9 -5.5°
